Tracking 28790 objects as of 19-Apr-2024
HD Live streaming from Space Station
objects crossing your sky now

COSMOS 2251 DEB

Track COSMOS 2251 DEB now!
10-day predictions


NORAD ID: 36048
Int'l Code: 1993-036AXK
Perigee: 759.0 km
Apogee: 798.7 km
Inclination: 74.1 °
Period: 100.3 minutes
Semi major axis: 7149 km
RCS: 0.0095 m2 (small)
Launch date: June 16, 1993
Source: Commonwealth of Independent States (former USSR) (CIS)
Launch site: PLESETSK MISSILE AND SPACE COMPLEX (PKMTR)

Note: This is SATELLITE DEBRIS
Your satellite tracking list
Your tracking list is empty




NASA's NSSDC Master Catalog

Two Line Element Set (TLE):
1 36048U 93036AXK 24108.90317490  .00001654  00000-0  57555-3 0  9996
2 36048  74.0571 328.3271 0027728 173.6321 199.9033 14.36009051768286
Source of the keplerian elements: AFSPC